Regional Weather Roundup
Issued by NWS

Home | Current Version | Previous Version | Text Only | Print | Product List | Glossary Off
Versions: 1 2 3 4 5 6 7 8 9 10 11 12 13 14 15 16 17 18 19 20 21 22 23 24 25 26 27 28 29 30 31 32 33 34 35 36 37 38 39 40 41 42 43 44 45 46 47 48 49 50

000
ASUS44 KMEG 260610
RWRTN
TENNESSEE HOURLY STATE WEATHER ROUNDUP
NATIONAL WEATHER SERVICE MEMPHIS TN
1200 AM CST FRI DEC 26 2014

TNZ002-004-019-021-049-052-054-088>092-260700-
WEST TENNESSEE

CITY           SKY/WX    TMP DP  RH WIND       PRES   REMARKS
MEMPHIS INTL   PTCLDY    43  34  70 SE8       30.15F
NWS MEMPHIS      N/A     40 N/A N/A MISG        N/A
JACKSON        PTCLDY    42  34  73 S8        30.18R
DYERSBURG      CLEAR     41  27  56 S5        30.17S
UNION CITY     CLEAR     37  34  87 S12       30.14S WCI  30
PARIS          CLEAR     36  32  87 S5        30.17S WCI  32
HUNTINGDON     PTCLDY    34  32  92 CALM      30.18S
LEXINGTON      CLEAR     37  34  87 SE3       30.17S
SAVANNAH       CLEAR     39  36  87 S3        30.19S
$$

TNZ008-025-027-028-033-062-065-066-260700-
NORTH MIDDLE TENNESSEE

CITY           SKY/WX    TMP DP  RH WIND       PRES   REMARKS
NASHVILLE      CLEAR     36  32  85 CALM      30.22R
CLARKSVILLE    CLEAR     37  33  85 CALM      30.19S
SMYRNA         CLEAR     29  28  96 CALM      30.24S
COOKEVILLE     CLEAR     30  28  93 CALM      30.21S
CROSSVILLE     CLEAR     36  31  82 CALM      30.22R
$$

TNZ061-075-076-078-094-096-097-260700-
SOUTH MIDDLE TENNESSEE

CITY           SKY/WX    TMP DP  RH WIND       PRES   REMARKS
FAYETTEVILLE   CLEAR     37  34  87 MISG      30.21R
TULLAHOMA      CLEAR     36  32  87 SE3       30.21S
WINCHESTER     CLEAR     34  30  86 CALM      30.22S
MCMINNVILLE    CLEAR     28  28 100 CALM      30.21S
COLUMBIA       CLEAR     37  37 100 S5        30.19R WCI  34
SHELBYVILLE    CLEAR     34  32  93 CALM      30.23R
$$

TNZ017-018-042-046-047-260700-
NORTHEAST TENNESSEE

CITY           SKY/WX    TMP DP  RH WIND       PRES   REMARKS
TRI CITIES     PTCLDY    27  26  96 CALM      30.25R
ELIZABETHTON   CLEAR     30  27  86 CALM      30.24R
$$

TNZ012-013-036-069-073-074-260700-
CENTRAL EAST TENNESSEE

CITY           SKY/WX    TMP DP  RH WIND       PRES   REMARKS
KNOXVILLE      CLEAR     31  29  92 W3        30.25R
OAK RIDGE      CLEAR     31  29  92 CALM      30.27S
GATLINBURG     CLEAR     27  27 100 CALM      30.25R
MORRISTOWN     CLEAR     30  30 100 CALM      30.24R
$$

TNZ083-085-099-260700-
SOUTHEAST TENNESSEE

CITY           SKY/WX    TMP DP  RH WIND       PRES   REMARKS
CHATTANOOGA    PTCLDY    33  31  92 CALM      30.25S
$$

SKY/WX REPORTED AS FAIR MEANS FEW OR NO CLOUDS BELOW
12 THOUSAND FEET.




USA.gov is the U.S. government's official web portal to all federal, state and local government web resources and services.